Storm Lake, IA

9:45 AM CDT on May 27, 2018 (GMT -0500)
Storm Lake Municipal

Weather History for KSLB - March, 2012

Change the Weather History Date:

Thursday, March 29, 2012

  Actual Average Record
Temperature  
Mean Temperature 55 °F -  
Max Temperature 68 °F 50 °F 77 °F (2005)
Min Temperature 42 °F 31 °F 23 °F (2009)
Degree Days  
Heating Degree Days 10    
Growing Degree Days 5 (Base 50)    
Moisture  
Dew Point 43 °F    
Average Humidity 63    
Maximum Humidity 83    
Minimum Humidity 41    
Precipitation  
Precipitation 0.00 in - - ()
Sea Level Pressure  
Sea Level Pressure 29.86 in    
Wind  
Wind Speed 14 mph (SE)    
Max Wind Speed 25 mph    
Max Gust Speed 33 mph    
Visibility 10 miles    
Events      
Averages and records for this station are not official NWS values.
T = Trace of Precipitation, MM = Missing Value Source: NWS Daily Summary

Daily Weather History Graph

Daily Weather History Graph

Search for Another Location

Airport or City:

Astronomy

Mar. 29, 2012 Rise Set
Actual Time 7:07 AM CDT 7:44 PM CDT
Civil Twilight 6:39 AM CDT 8:12 PM CDT
Nautical Twilight 6:05 AM CDT 8:46 PM CDT
Astronomical Twilight 5:31 AM CDT 9:20 PM CDT
Moon 11:10 AM CDT (3/29) 1:42 AM CDT (3/29)
Length of Visible Light 13h 33m
Length of Day
12h 36m
Waxing Crescent, 39% of the Moon is Illuminated
Mar 29
Waxing Crescent
Mar 30
First Quarter
Apr 6
Full
Apr 13
Last Quarter
Apr 21
New

Hourly Weather History & Observations

Time (CDT) Temp. Windchill Dew Point Humidity Pressure Visibility Wind Dir Wind Speed Gust Speed Precip Events Conditions
12:15 AM 48.4 °F - 33.8 °F 57% 29.97 in 10.0 mi East 11.5 mph - N/A   Clear
12:35 AM 47.7 °F - 33.8 °F 59% 29.97 in 10.0 mi East 10.4 mph - N/A   Clear
12:55 AM 46.6 °F - 33.8 °F 61% 29.97 in 10.0 mi East 10.4 mph - N/A   Clear
1:15 AM 46.4 °F 41.5 °F 33.8 °F 62% 29.96 in 10.0 mi East 10.4 mph - N/A   Clear
1:35 AM 45.1 °F 40.3 °F 34.0 °F 65% 29.96 in 10.0 mi East 9.2 mph - N/A   Clear
1:55 AM 45.0 °F 38.5 °F 34.0 °F 65% 29.96 in 10.0 mi East 13.8 mph - N/A   Clear
2:15 AM 44.8 °F 39.0 °F 34.0 °F 66% 29.96 in 10.0 mi East 11.5 mph - N/A   Clear
2:35 AM 44.1 °F 39.0 °F 33.8 °F 67% 29.97 in 10.0 mi East 9.2 mph - N/A   Clear
2:55 AM 44.6 °F 39.7 °F 33.8 °F 66% 29.97 in 10.0 mi SE 9.2 mph - N/A   Clear
3:35 AM 43.3 °F 36.8 °F 33.8 °F 69% 29.96 in 10.0 mi ESE 12.7 mph - N/A   Clear
3:55 AM 43.5 °F 37.9 °F 33.8 °F 69% 29.96 in 10.0 mi East 10.4 mph - N/A   Clear
4:15 AM 43.0 °F 36.8 °F 34.0 °F 71% 29.96 in 10.0 mi ESE 11.5 mph - N/A   Clear
4:35 AM 44.4 °F 37.5 °F 34.7 °F 69% 29.96 in 10.0 mi ESE 15.0 mph - N/A   Clear
5:15 AM 42.4 °F 35.3 °F 34.7 °F 74% 29.96 in 10.0 mi ESE 13.8 mph - N/A   Clear
5:35 AM 42.3 °F 34.8 °F 34.7 °F 75% 29.95 in 10.0 mi ESE 15.0 mph - N/A   Clear
5:55 AM 43.0 °F 36.0 °F 35.1 °F 74% 29.95 in 10.0 mi ESE 13.8 mph - N/A   Clear
6:15 AM 43.0 °F 36.0 °F 35.2 °F 74% 29.95 in 10.0 mi ESE 13.8 mph - N/A   Clear
6:35 AM 42.8 °F 36.6 °F 35.2 °F 75% 29.94 in 10.0 mi ESE 11.5 mph - N/A   Clear
6:55 AM 42.3 °F 35.5 °F 35.2 °F 76% 29.94 in 10.0 mi ESE 12.7 mph - N/A   Clear
7:15 AM 42.4 °F 35.3 °F 35.6 °F 77% 29.94 in 10.0 mi ESE 13.8 mph - N/A   Clear
7:35 AM 43.5 °F 36.4 °F 36.0 °F 75% 29.94 in 10.0 mi SE 15.0 mph - N/A   Clear
7:55 AM 43.7 °F 36.6 °F 36.3 °F 75% 29.94 in 10.0 mi SE 15.0 mph - N/A   Clear
8:15 AM 45.0 °F 37.6 °F 37.0 °F 74% 29.94 in 10.0 mi ESE 17.3 mph - N/A   Clear
8:35 AM 46.4 °F 39.8 °F 37.4 °F 71% 29.94 in 10.0 mi ESE 16.1 mph 23.0 mph N/A   Clear
8:55 AM 48.7 °F - 37.9 °F 66% 29.94 in 10.0 mi SE 19.6 mph - N/A   Clear
9:15 AM 51.3 °F - 38.5 °F 62% 29.94 in 10.0 mi SE 19.6 mph 23.0 mph N/A   Clear
9:35 AM 54.0 °F - 38.7 °F 56% 29.92 in 10.0 mi SE 18.4 mph - N/A   Clear
10:35 AM 59.4 °F - 39.7 °F 48% 29.90 in 10.0 mi SE 23.0 mph 26.5 mph N/A   Clear
10:55 AM 61.3 °F - 40.1 °F 46% 29.88 in 10.0 mi SE 24.2 mph 29.9 mph N/A   Clear
11:15 AM 62.6 °F - 41.0 °F 45% 29.87 in 10.0 mi SSE 25.3 mph 29.9 mph N/A   Clear
11:35 AM 64.4 °F - 41.7 °F 44% 29.85 in 10.0 mi SSE 24.2 mph 31.1 mph N/A   Clear
11:55 AM 65.3 °F - 42.3 °F 43% 29.85 in 10.0 mi SSE 25.3 mph 32.2 mph N/A   Clear
12:15 PM 66.2 °F - 43.0 °F 43% 29.84 in 10.0 mi SSE 21.9 mph 33.4 mph N/A   Clear
12:55 PM 68.2 °F - 43.7 °F 41% 29.85 in 10.0 mi SSE 20.7 mph 29.9 mph N/A   Clear
1:15 PM 67.8 °F - 43.0 °F 41% 29.84 in 10.0 mi SE 15.0 mph 27.6 mph N/A   Scattered Clouds
1:35 PM 67.8 °F - 44.6 °F 43% 29.84 in 10.0 mi SSE 19.6 mph - N/A   Overcast
1:55 PM 66.6 °F - 45.7 °F 47% 29.83 in 10.0 mi SSE 19.6 mph - N/A   Overcast
2:15 PM 67.5 °F - 46.4 °F 47% 29.81 in 10.0 mi SSE 19.6 mph 25.3 mph N/A   Overcast
2:35 PM 67.8 °F - 46.8 °F 47% 29.81 in 10.0 mi SSE 18.4 mph 25.3 mph N/A   Overcast
2:55 PM 66.9 °F - 47.7 °F 50% 29.81 in 10.0 mi SSE 19.6 mph - N/A   Overcast
3:15 PM 67.1 °F - 48.0 °F 50% 29.80 in 10.0 mi SSE 18.4 mph - N/A   Overcast
3:35 PM 67.1 °F - 48.4 °F 51% 29.80 in 10.0 mi SSE 19.6 mph 24.2 mph N/A   Overcast
3:55 PM 66.6 °F - 48.9 °F 53% 29.79 in 10.0 mi SE 17.3 mph 24.2 mph N/A   Overcast
4:15 PM 66.4 °F - 50.2 °F 56% 29.78 in 10.0 mi SSE 20.7 mph 24.2 mph N/A   Overcast
4:35 PM 65.5 °F - 51.1 °F 60% 29.78 in 10.0 mi SSE 17.3 mph 21.9 mph N/A   Overcast
4:55 PM 64.9 °F - 51.8 °F 62% 29.78 in 10.0 mi SSE 17.3 mph - N/A   Overcast
5:15 PM 64.4 °F - 51.8 °F 64% 29.77 in 10.0 mi South 11.5 mph - N/A   Overcast
5:35 PM 64.2 °F - 51.8 °F 64% 29.77 in 10.0 mi SE 11.5 mph - N/A   Overcast
5:55 PM 64.0 °F - 51.4 °F 64% 29.77 in 10.0 mi SSE 13.8 mph 18.4 mph N/A   Overcast
6:15 PM 64.0 °F - 51.8 °F 64% 29.76 in 10.0 mi SSE 12.7 mph - N/A   Overcast
6:35 PM 63.9 °F - 52.2 °F 66% 29.76 in 10.0 mi SSE 15.0 mph - N/A   Overcast
6:55 PM 63.7 °F - 52.2 °F 66% 29.75 in 10.0 mi South 11.5 mph 23.0 mph N/A   Overcast
7:15 PM 62.8 °F - 52.3 °F 69% 29.75 in 10.0 mi SSE 17.3 mph - N/A   Overcast
7:35 PM 61.9 °F - 52.2 °F 70% 29.75 in 10.0 mi SSE 18.4 mph 21.9 mph N/A   Overcast
7:55 PM 59.5 °F - 52.5 °F 78% 29.73 in 10.0 mi SE 12.7 mph - N/A   Overcast
8:15 PM 59.0 °F - 52.5 °F 79% 29.74 in 10.0 mi SSE 16.1 mph - N/A   Overcast
8:35 PM 57.9 °F - 52.7 °F 83% 29.72 in 10.0 mi SE 12.7 mph - N/A   Overcast
8:55 PM 57.4 °F - 52.3 °F 83% 29.74 in 10.0 mi SE 15.0 mph - N/A   Mostly Cloudy
9:15 PM 57.2 °F - 50.9 °F 79% 29.76 in 10.0 mi SE 12.7 mph - N/A   Overcast
9:35 PM 57.2 °F - 48.4 °F 72% 29.76 in 10.0 mi SE 12.7 mph - N/A   Overcast
9:55 PM 55.8 °F - 48.7 °F 77% 29.75 in 10.0 mi SE 11.5 mph - N/A   Overcast
10:15 PM 55.8 °F - 49.3 °F 79% 29.74 in 10.0 mi SE 9.2 mph - N/A   Overcast
10:35 PM 55.9 °F - 49.8 °F 80% 29.74 in 10.0 mi SE 9.2 mph - N/A   Overcast
10:55 PM 56.1 °F - 50.2 °F 80% 29.77 in 10.0 mi NW 15.0 mph 21.9 mph N/A   Overcast
11:15 PM 53.6 °F - 50.9 °F 91% 29.74 in 2.5 mi East 12.7 mph 18.4 mph 0.27 in   Overcast
11:35 PM 53.2 °F - 50.9 °F 92% 29.72 in 7.0 mi ESE 13.8 mph - 0.32 in   Mostly Cloudy
11:55 PM 53.2 °F - 51.1 °F 92% 29.70 in 10.0 mi SE 11.5 mph - 0.32 in   Mostly Cloudy